#timestamp,LO_Frequency,Hit,StdDev 
1506499215.3,286046994.6,P
1506499235.1,286046991.8,P
1506499255.9,286046997.3,N
1506499275.7,286046994.9,N
1506499295.5,286046994.8,N
1506499315.4,286046995.6,N
1506499335.2,286046991.7,Y
1506499355.0,286047000.2,P
1506499355.9,286047000.2,N
1506499375.8,286047002.7,N
1506499395.6,286047000.1,N
1506499415.4,286047001.6,N
1506499435.3,286047000.2,N
1506499455.1,286047000.9,N
1506499456.0,286047000.9,N
1506499475.8,286047002.2,N
1506499495.7,286047000.3,N
1506499515.5,286046998.1,N
1506499535.3,286047000.9,N
1506499555.1,286047001.9,N
1506499575.9,286047000.4,N
1506499595.7,286046998.6,N
1506499615.5,286046995.7,N
1506499635.4,286046997.8,N
1506499655.2,286046997.2,N
1506499675.0,286046997.5,N
1506499675.9,286046997.5,N
1506499695.8,286046999.3,N
1506499715.6,286046998.4,N
1506499735.4,286046997.9,N
1506499755.3,286046995.0,N
1506499775.1,286046999.9,N
1506499776.0,286046999.9,N
1506499795.8,286047003.2,N
1506499815.7,286047001.0,N
1506499835.5,286046998.5,N
1506499855.3,286046997.4,N
1506499875.2,286047000.4,N
1506499895.9,286047001.6,N
1506499915.7,286047004.4,N
1506499935.5,286046999.9,N
1506499955.4,286046998.8,N
1506499975.2,286046999.1,N
1506499995.0,286046996.1,N
1506499995.9,286046996.1,N
1506500015.8,286046997.3,N
1506500035.6,286046996.8,N
1506500055.4,286046993.5,Y
1506500075.3,286046998.1,P
1506500095.1,286046999.9,N
1506500115.8,286046997.1,P
1506500135.7,286046998.5,N
1506500155.5,286046997.6,N
1506500175.3,286046998.5,N
1506500195.2,286046999.0,N
1506500215.9,286046997.7,N
1506500235.7,286046995.1,Y
1506500255.6,286046998.9,P
1506500275.4,286046997.4,P
1506500295.2,286047000.0,N
1506500315.1,286047001.8,N
1506500316.0,286047001.8,N
1506500335.8,286047002.8,N
1506500355.6,286047002.9,N
1506500375.5,286046999.7,N
1506500395.3,286047000.4,N
1506500415.1,286046998.5,N
1506500435.8,286047001.5,N
1506500455.7,286047002.3,N
1506500475.5,286047002.6,N
1506500495.3,286047001.5,N
1506500515.2,286047002.4,N
1506500535.9,286047000.9,N
1506500555.7,286047001.9,N
1506500575.6,286047001.4,N
1506500595.4,286046998.1,N
1506500615.2,286047000.7,N
1506500635.1,286047002.1,N
1506500636.0,286047002.1,N
1506500655.8,286047001.1,N
1506500675.6,286047001.8,N
1506500695.5,286046998.5,N
1506500715.3,286046998.3,N
1506500735.1,286046997.5,N
1506500755.8,286047001.5,N
1506500775.7,286047005.1,N
1506500795.5,286047002.7,N
1506500815.3,286046997.5,N
1506500835.2,286046996.2,N
1506500855.9,286046994.5,N
1506500875.7,286046994.5,N
1506500895.6,286046995.8,N
1506500915.4,286046995.2,N
1506500935.2,286046996.5,N
1506500955.1,286046998.3,N
1506500956.0,286046998.3,N
1506500975.8,286046995.0,N
1506500995.6,286046993.7,N
1506501015.5,286046990.2,Y
1506501035.3,286046995.8,P
1506501055.1,286046995.0,N
1506501075.9,286046992.4,P
1506501095.7,286046994.0,N
1506501115.5,286046992.7,Y
1506501135.4,286046999.1,P
1506501155.2,286047001.8,N
1506501175.0,286046998.5,N
1506501175.9,286046998.5,N
1506501195.8,286047002.4,N
1506501215.6,286046999.7,N
1506501235.4,286046996.9,N
1506501255.2,286046997.4,N
1506501275.1,286046998.6,N
1506501276.0,286046998.6,N
1506501295.8,286046998.1,N
1506501315.6,286047000.1,N
1506501335.5,286046998.5,N
1506501355.3,286046997.6,N
1506501375.1,286046997.5,N
1506501395.9,286046996.8,N
1506501415.7,286046996.7,N
1506501435.5,286046998.8,N
1506501455.4,286047001.6,N
1506501475.2,286047000.5,N
1506501495.0,286047000.8,N
1506501495.9,286047000.8,N
1506501515.8,286047001.1,N
1506501535.6,286046998.6,N
1506501555.4,286046997.5,N
1506501575.3,286046997.8,N
1506501595.1,286046996.5,N
1506501596.0,286046996.5,N
1506501615.8,286047004.4,N
1506501635.7,286047000.5,N
1506501655.5,286047000.8,N
1506501675.3,286046999.3,N
1506501695.1,286046998.4,N
1506501715.9,286046996.7,N
1506501735.7,286046997.4,N
1506501755.5,286046999.2,N
1506501775.4,286047000.5,N
1506501795.2,286047002.7,N
1506501815.0,286046998.4,N
1506501815.9,286046998.4,N
1506501835.8,286046999.2,N
1506501855.6,286046999.6,N
1506501875.4,286047000.3,N
1506501895.3,286046996.9,N
1506501915.1,286046998.8,N
1506501916.0,286046998.8,N
1506501935.8,286046997.3,N
1506501955.7,286046997.0,N
1506501975.5,286046992.3,Y
1506501995.3,286046991.8,P
1506502015.2,286046993.7,N
1506502035.9,286046996.2,N
1506502055.7,286046995.7,N
1506502075.6,286046995.1,N
1506502095.4,286046996.8,N
1506502115.2,286046997.9,N
1506502135.0,286046997.5,N
1506502136.0,286046997.5,N
1506502155.8,286046999.4,N
1506502175.6,286046997.5,N
1506502195.4,286046999.2,N
1506502215.3,286046998.3,N
1506502235.1,286046997.5,N
1506502255.8,286047002.7,N
1506502275.7,286046998.2,N
1506502295.5,286046996.0,N
1506502315.3,286046995.2,N
1506502335.2,286046999.4,N
1506502355.9,286046999.0,N
1506502375.7,286047001.4,N
1506502395.6,286046999.1,N
1506502415.4,286046994.9,N
1506502435.2,286046998.4,N
1506502455.1,286047000.9,N
1506502456.0,286047000.9,N
1506502475.8,286047003.6,N
1506502495.6,286047007.1,N
1506502515.4,286047003.6,N
1506502535.3,286047003.9,N
1506502555.1,286047007.6,N
1506502575.8,286047006.8,N
1506502595.7,286047007.3,N
1506502615.5,286047003.5,N
1506502635.3,286047006.9,N
1506502655.2,286047006.8,N
1506502675.9,286047004.5,N
1506502695.7,286047004.6,N
1506502715.6,286047004.6,N
1506502735.4,286047007.3,N
1506502755.2,286047006.9,N
1506502775.0,286047004.6,N
1506502776.0,286047004.6,N
1506502795.8,286047003.6,N
